Regional Weather Roundup
Issued by NWS Sterling, VA

Home | Current Version | Previous Version | Graphics & Text | Print | Product List | Glossary On
Versions: 1 2 3 4 5 6 7 8 9 10 11 12 13 14 15 16 17 18 19 20 21 22 23 24 25 26 27
000
ASUS41 KLWX 240511
RWRLWX

REGIONAL WEATHER ROUNDUP
NATIONAL WEATHER SERVICE BALTIMORE MD/WASHINGTON DC
100 AM EDT SUN SEP 24 2017

Note: "FAIR" indicates few or no clouds below 12,000 feet
with no significant weather and/or obstructions to visibility.
 TC=TEMPERATURE CELSIUS

 * =Non NWS site. Station does not report precipitation (e.g. rain,
    snow, etc.), thunder, or fog.

DCZ001-MDZ009-015-VAZ040>042-051-053>054-240600-
WASHINGTON METRO

CITY           SKY/WX    TMP DP  RH WIND       PRES   REMARKS
WASHINGTON NAT PTCLDY    71  62  73 SW3       30.07F
DULLES         CLEAR     64  62  93 NW3       30.08F
ANDREWS AFB    CLEAR     61  60  96 CALM      30.06S
FT BELVOIR     CLEAR     62  61  95 CALM      30.07F
QUANTICO         N/A     67  65  93 NW8       30.07F
COLLEGE PARK*  CLEAR     62  61  96 CALM      30.06F
LEESBURG*      CLEAR     64  63  94 CALM      30.09F
MANASSAS*      CLEAR     59  59 100 CALM      30.09S FOG
GAITHERSBURG*  CLEAR     61  59  93 CALM      30.09F

$$

MDZ006>007-011-014-240600-
BALTIMORE METRO

CITY           SKY/WX    TMP DP  RH WIND       PRES   REMARKS
BWI AIRPORT    CLEAR     64  61  90 W5        30.05F
MD SCIENCE CTR   N/A     75  58  55 MISG      30.06F
MARTIN STATE   CLEAR     68  61  77 CALM      30.06F
ANNAPOLIS      CLEAR     71  71 100 W3        30.05F
FORT MEADE*    CLEAR     59  59 100 CALM      30.09F

$$

MDZ012-015-019>023-240600-
MARYLAND EASTERN SHORE

CITY           SKY/WX    TMP DP  RH WIND       PRES   REMARKS
OCEAN CITY     PTCLDY    65  65 100 CALM      30.04F
SALISBURY      CLEAR     65  64  97 CALM      30.04F
CAMBRIDGE*     CLEAR     64  63  94 CALM      30.05F
EASTON*        CLEAR     66  64  93 CALM      30.08F

$$

MDZ017>025-240600-
SOUTHERN MARYLAND

CITY           SKY/WX    TMP DP  RH WIND       PRES   REMARKS
PATUXENT RIVER CLEAR     62  61  96 W5        30.04F
ST INIGOES     CLEAR     62  62 100 CALM      30.04F
LEONARDTOWN*   CLEAR     63  61  94 CALM      30.07F

$$

MDZ003>005-240600-
NORTH CENTRAL MARYLAND

CITY           SKY/WX    TMP DP  RH WIND       PRES   REMARKS
FREDERICK*     FOG       61  61 100 CALM      30.11F VSB 1
HAGERSTOWN APT CLEAR     68  57  68 CALM      30.10S
WESTMINSTER*   CLEAR     66  61  82 CALM      30.10S

$$

MDZ501>502-240600-
WESTERN MARYLAND

CITY           SKY/WX    TMP DP  RH WIND       PRES   REMARKS
OAKLAND*       CLEAR     68  48  49 E7        30.20S
CUMBERLAND*    CLEAR     64  59  82 N3        30.16F

$$

VAZ025>031-240600-
SHENANDOAH VALLEY

CITY           SKY/WX    TMP DP  RH WIND       PRES   REMARKS
WINCHESTER*    CLEAR     59  55  88 CALM      30.10F
FRONT ROYAL*   CLEAR     61  55  82 CALM      30.11S
LURAY*         CLEAR     59  54  82 CALM      30.13S
NEW MARKET*    CLEAR     54  51  88 CALM      30.13F
STAUNTON*      CLEAR     55  53  94 CALM      30.17S
WAYNESBORO*    CLEAR     58  58 100 SW3       30.15F

$$

WVZ021-048>050-054>055-240600-
EASTERN WEST VIRGINIA PANHANDLE

CITY           SKY/WX    TMP DP  RH WIND       PRES   REMARKS
MARTINSBURG    CLEAR     60  55  83 CALM      30.09F
PETERSBURG*    CLEAR     58  56  92 CALM      30.15S

$$

VAZ036>039-050-240600-
CENTRAL FOOTHILLS

CITY           SKY/WX    TMP DP  RH WIND       PRES   REMARKS
CHARLOTTESVILL CLEAR     64  61  90 CALM      30.11S
CULPEPER*      CLEAR     60  58  94 CALM      30.10S
ORANGE*        CLEAR     59  55  88 CALM      30.10S
GORDONSVILLE*  CLEAR     59  59 100 CALM      30.09S
WARRENTON*       N/A     56  53  91 CALM      30.08S FOG

$$

VAZ055>057-240600-
NORTH AND CENTRAL PIEDMONT

CITY           SKY/WX    TMP DP  RH WIND       PRES   REMARKS
FREDERICKSBRG* CLEAR     64  64 100 CALM      30.07S
STAFFORD*      CLEAR     59  59 100 CALM      30.12R

$$

NCZ024-NYZ072-PAZ021-071-VAZ022-071-240600-
OTHER REGIONAL OBSERVATIONS

CITY           SKY/WX    TMP DP  RH WIND       PRES   REMARKS
NEW YORK CITY  CLEAR     73  56  54 CALM      30.07S
PHILADELPHIA   CLEAR     74  59  59 CALM      30.04F
PITTSBURGH     CLEAR     66  59  78 CALM      30.14S
ROANOKE        CLEAR     66  59  78 NE3       30.15F
RICHMOND       CLEAR     69  65  86 NW3       30.07S
RALEIGH        MOCLDY    70  63  78 NE3       30.07S

$$

ANZ530>537-240600-
MARINE OBSERVATIONS

STATION/POSITION TIME  TEMP    WIND        PRES
                       AIR SEA DIR/SP/G
                 (UTC) (F)     (DEG/KT/KT) (MB)
THOMAS PT LIGHT  0500   73 76  320/  5/  6   N/A
BALT KEY BRIDGE  0448   74     280/  6/  6 1017.5F
COVE POINT       0448   74     300/  3/  3 1018.1F
LEWISETTA        0448   72 78  260/  4/  4 1017.4F
SOLOMONS ISLAND  0448   71 76  290/  2/  2 1017.1F
PINEY POINT      0442          350/  3/  3   N/A

$$





USA.gov is the U.S. government's official web portal to all federal, state and local government web resources and services.